Regional Weather Roundup
Issued by NWS Binghamton, NY

Home | Current Version | Previous Version | Text Only | Print | Product List | Glossary On
Versions: 1 2 3 4 5 6 7 8 9 10 11 12 13 14 15 16 17 18 19 20 21 22 23 24 25 26 27 28 29 30 31 32 33 34 35 36 37 38 39 40 41 42 43 44 45 46 47 48 49
000
ASUS41 KBGM 101810
RWRBGM
RWRBGM
BINGHAMTON REGIONAL WEATHER ROUNDUP
NATIONAL WEATHER SERVICE BINGHAMTON NY
200 PM EDT THU JUL 10 2014

Note: "fair" indicates few or no clouds below 12,000 feet with no
significant weather and/or obstructions to visibility.

* = Station(s) that does not report precipitation, such as rain,
snow, etc, also no thunder or fog.

!NYZ009-015>018-022>025-036-037-044>046-055>057-062-101900
...CENTRAL NEW YORK...

CITY           SKY/WX    TMP DP  RH WIND       PRES   REMARKS
BINGHAMTON     MOSUNNY   71  52  50 CALM      30.18F
CORTLAND       FAIR      72  52  49 N3        30.19S
DANSVILLE      SUNNY     74  52  46 W7        30.18S
ELMIRA         MOSUNNY   74  52  46 CALM      30.17S
ITHACA         MOSUNNY   71  54  55 NW6       30.20S
HAMILTON       PTCLDY    72  54  53 NE6       30.18S
MONTICELLO     NOT AVBL
NORWICH        PTSUNNY   73  50  43 CALM      30.18R
ONEONTA        SUNNY     66  46  48 CALM      30.19S
PENN YAN       SUNNY     72  53  51 VRB3      30.19F
ROME           SUNNY     72  52  49 NW10      30.16F
SIDNEY         MOSUNNY   75  57  53 CALM      30.17S
SYRACUSE       MOSUNNY   74  51  44 NW9       30.17S
$$

!PAZ038>040-043-044-047-048-072-101900
...NORTHEAST PENNSYLVANIA...

CITY           SKY/WX    TMP DP  RH WIND       PRES   REMARKS
HAZLETON       PTSUNNY   73  59  60 NW6       30.18F
SCRANTON       CLOUDY    77  55  46 VRB5      30.15S
TOWANDA*       PTSUNNY   75  55  50 CALM      30.16S
$$
&&
KEY
WCI = WIND CHILL INDEX
VSB = VISIBILITY
HX  = HEAT INDEX
$$


USA.gov is the U.S. government's official web portal to all federal, state and local government web resources and services.